Weather History for Buckland, AK

Change the Weather History Date:

Friday, February 22, 2013

  Actual Average (PASK) Record (PASK)
Temperature  
Mean Temperature -25 °F -  
Max Temperature -16 °F 6 °F 26 °F (2001)
Min Temperature -34 °F -2 °F -31 °F (2007)
Degree Days  
Heating Degree Days 90    
Moisture  
Dew Point -27 °F    
Average Humidity 69    
Maximum Humidity 100    
Minimum Humidity 53    
Precipitation  
Precipitation 0.00 in - - ()
Sea Level Pressure  
Sea Level Pressure 29.67 in    
Wind  
Wind Speed 2 mph (SSE)    
Max Wind Speed 6 mph    
Max Gust Speed -    
Visibility 10 miles    
Events      
Averages and records for this station are not official NWS values.
T = Trace of Precipitation, MM = Missing Value Source: NWS Daily Summary

Daily Weather History Graph

Daily Weather History Graph

Search for Another Location

Airport:

Trip Planner

Search our weather history database for the weather conditions in past years. The results will help you decide how hot, cold, wet, or windy it might be!

Date:

Astronomy

Feb. 22, 2013 Rise Set
Actual Time 9:21 AM AKST 6:35 PM AKST
Civil Twilight 8:28 AM AKST 7:28 PM AKST
Nautical Twilight 7:29 AM AKST 8:28 PM AKST
Astronomical Twilight 6:29 AM AKST 9:28 PM AKST
Moon 3:10 PM AKST (2/22) 8:07 AM AKST (2/22)
Length of Visible Light 11h 00m
Length of Day
9h 14m
Waxing Gibbous, 91% of the Moon is Illuminated
Feb 22
Waxing Gibbous
Feb 25
Full
Mar 4
Last Quarter
Mar 11
New
Mar 19
First Quarter

Hourly Weather History & Observations

Time (AKST) Temp. Windchill Dew Point Humidity Pressure Visibility Wind Dir Wind Speed Gust Speed Precip Events Conditions
12:16 AM -23.8 °F -37.7 °F - N/A% 29.64 in 10.0 mi South 4.6 mph - N/A   Unknown
12:36 AM -25.6 °F -37.1 °F - N/A% 29.64 in 10.0 mi SSE 3.5 mph - N/A   Unknown
12:56 AM -25.6 °F - - N/A% 29.64 in 10.0 mi Calm Calm - N/A   Unknown
1:16 AM -23.8 °F -35.0 °F -29.2 °F 76% 29.65 in 10.0 mi SE 3.5 mph - N/A   Unknown
1:36 AM -20.2 °F -30.9 °F -27.4 °F 69% 29.64 in 10.0 mi South 3.5 mph - N/A   Unknown
1:56 AM -20.2 °F -33.5 °F - N/A% 29.65 in 10.0 mi South 4.6 mph - N/A   Unknown
2:16 AM - - - N/A% 29.65 in 10.0 mi SSE 3.5 mph - N/A   Unknown
2:36 AM -18.4 °F -33.4 °F -23.8 °F 76% 29.65 in 10.0 mi SSE 5.8 mph - N/A   Unknown
2:56 AM -18.4 °F -28.9 °F -27.4 °F 63% 29.65 in 10.0 mi SSE 3.5 mph - N/A   Unknown
3:16 AM -16.6 °F -31.3 °F - N/A% 29.66 in 10.0 mi SSE 5.8 mph - N/A   Unknown
3:36 AM -16.6 °F -26.8 °F -20.2 °F 84% 29.66 in 10.0 mi ESE 3.5 mph - N/A   Unknown
3:56 AM -16.6 °F -26.8 °F -29.2 °F 53% 29.66 in 10.0 mi ESE 3.5 mph - N/A   Unknown
4:16 AM -16.6 °F -26.8 °F - N/A% 29.66 in 10.0 mi ESE 3.5 mph - N/A   Unknown
4:36 AM -16.6 °F - -25.6 °F 64% 29.66 in 10.0 mi Calm Calm - N/A   Unknown
4:56 AM -18.4 °F - -27.4 °F 63% 29.67 in 10.0 mi Calm Calm - N/A   Unknown
5:16 AM -18.4 °F - -29.2 °F 58% 29.67 in 10.0 mi Calm Calm - N/A   Unknown
5:36 AM -20.2 °F - - N/A% 29.68 in 10.0 mi Calm Calm - N/A   Unknown
5:56 AM -23.8 °F - - N/A% 29.68 in 10.0 mi Calm Calm - N/A   Unknown
6:16 AM -23.8 °F - - N/A% 29.68 in 10.0 mi Calm Calm - N/A   Unknown
6:36 AM -23.8 °F - - N/A% 29.68 in 10.0 mi Calm Calm - N/A   Unknown
6:56 AM -25.6 °F - - N/A% 29.69 in 10.0 mi Calm Calm - N/A   Unknown
7:16 AM -27.4 °F - - N/A% 29.69 in 10.0 mi Calm Calm - N/A   Unknown
7:36 AM -27.4 °F - - N/A% 29.70 in 10.0 mi Calm Calm - N/A   Unknown
7:56 AM -25.6 °F - - N/A% 29.70 in 10.0 mi Calm Calm - N/A   Unknown
8:16 AM -27.4 °F - - N/A% 29.70 in 10.0 mi Calm Calm - N/A   Unknown
8:36 AM -29.2 °F - - N/A% 29.71 in 10.0 mi Calm Calm - N/A   Unknown
8:56 AM -29.2 °F - - N/A% 29.71 in 10.0 mi Calm Calm - N/A   Unknown
9:16 AM -31.0 °F - - N/A% 29.71 in 10.0 mi Calm Calm - N/A   Unknown
9:36 AM -31.0 °F - - N/A% 29.71 in 10.0 mi Calm Calm - N/A   Unknown
9:56 AM -25.6 °F -41.9 °F -25.6 °F 100% 29.71 in 10.0 mi SE 5.8 mph - N/A   Unknown
10:16 AM -25.6 °F -39.8 °F - N/A% 29.70 in 10.0 mi SE 4.6 mph - N/A   Unknown
10:36 AM -27.4 °F - - N/A% 29.71 in 7.0 mi Calm Calm - N/A   Unknown
10:56 AM -27.4 °F - - N/A% 29.71 in 10.0 mi Calm Calm - N/A   Unknown
11:16 AM -27.4 °F - - N/A% 29.71 in 10.0 mi Calm Calm - N/A   Unknown
11:36 AM -27.4 °F - - N/A% 29.71 in 10.0 mi Calm Calm - N/A   Unknown
11:56 AM -25.6 °F - - N/A% 29.71 in 4.0 mi Calm Calm - N/A   Unknown
12:16 PM -23.8 °F - - N/A% 29.71 in 8.0 mi Calm Calm - N/A   Unknown
12:36 PM -25.6 °F - - N/A% 29.71 in 8.0 mi Calm Calm - N/A   Unknown
12:56 PM -25.6 °F - - N/A% 29.71 in 5.0 mi Calm Calm - N/A   Unknown
1:16 PM -25.6 °F - - N/A% 29.71 in 7.0 mi Calm Calm - N/A   Unknown
1:36 PM -23.8 °F - - N/A% 29.71 in 5.0 mi Calm Calm - N/A   Unknown
1:56 PM -23.8 °F - - N/A% 29.71 in 7.0 mi Calm Calm - N/A   Unknown
2:16 PM -20.2 °F - -27.4 °F 69% 29.71 in 7.0 mi Calm Calm - N/A   Unknown
2:36 PM -20.2 °F - - N/A% 29.71 in 10.0 mi Calm Calm - N/A   Unknown
2:56 PM -18.4 °F - -29.2 °F 58% 29.70 in 10.0 mi Calm Calm - N/A   Unknown
3:16 PM -20.2 °F - - N/A% 29.70 in 10.0 mi Calm Calm - N/A   Unknown
3:36 PM -20.2 °F - - N/A% 29.69 in 10.0 mi Calm Calm - N/A   Unknown
3:56 PM -20.2 °F - - N/A% 29.69 in 6.0 mi Calm Calm - N/A   Unknown
4:16 PM -20.2 °F - - N/A% 29.68 in 10.0 mi Calm Calm - N/A   Unknown
4:36 PM -18.4 °F - -27.4 °F 63% 29.68 in 10.0 mi Calm Calm - N/A   Unknown
4:56 PM -20.2 °F - - N/A% 29.68 in 10.0 mi Calm Calm - N/A   Unknown
5:16 PM -18.4 °F - - N/A% 29.68 in 10.0 mi Calm Calm - N/A   Unknown
5:36 PM -20.2 °F - -29.2 °F 63% 29.67 in 10.0 mi Calm Calm - N/A   Unknown
5:56 PM -23.8 °F - - N/A% 29.66 in 10.0 mi Calm Calm - N/A   Unknown
6:16 PM -23.8 °F - - N/A% 29.66 in 10.0 mi Calm Calm - N/A   Unknown
6:36 PM -25.6 °F -37.1 °F - N/A% 29.66 in 10.0 mi SSE 3.5 mph - N/A   Unknown
6:56 PM -29.2 °F - - N/A% 29.66 in 10.0 mi Calm Calm - N/A   Unknown
7:16 PM -31.0 °F - - N/A% 29.65 in 10.0 mi Calm Calm - N/A   Unknown
7:36 PM -32.8 °F - - N/A% 29.65 in 10.0 mi Calm Calm - N/A   Unknown
7:56 PM -32.8 °F - - N/A% 29.64 in 10.0 mi Calm Calm - N/A   Unknown
8:16 PM -32.8 °F - - N/A% 29.64 in 10.0 mi Calm Calm - N/A   Unknown
8:36 PM -32.8 °F - - N/A% 29.64 in 10.0 mi Calm Calm - N/A   Unknown
8:56 PM -34.6 °F - - N/A% 29.63 in 10.0 mi Calm Calm - N/A   Unknown
9:16 PM -34.6 °F - - N/A% 29.63 in 10.0 mi Calm Calm - N/A   Unknown
9:36 PM -34.6 °F - - N/A% 29.63 in 10.0 mi Calm Calm - N/A   Unknown
9:56 PM -32.8 °F - - N/A% 29.63 in 10.0 mi Calm Calm - N/A   Unknown
10:16 PM -32.8 °F - - N/A% 29.62 in 10.0 mi Calm Calm - N/A   Unknown
10:36 PM -31.0 °F - - N/A% 29.62 in 10.0 mi Calm Calm - N/A   Unknown
10:56 PM -31.0 °F - - N/A% 29.61 in 10.0 mi Calm Calm - N/A   Unknown
11:16 PM -32.8 °F - - N/A% 29.61 in 10.0 mi Calm Calm - N/A   Unknown
11:36 PM -31.0 °F - - N/A% 29.60 in 10.0 mi Calm Calm - N/A   Unknown
11:56 PM -29.2 °F - - N/A% 29.60 in 10.0 mi Calm Calm - N/A   Unknown